Temp
-4 -4 -4 -4 -4 -4 -4 -4 -4 -4 -4 -5 -5 -5 -5 -5 -5 -5 -5 -5 -5 -5 -5 -5 -6 -6 -6 -6 -6 -6 -6 -6 -6 -6 -6 -6 -6 -6 -6 -6 -7 -7
-4 -4 -4 -4 -4 -4 -4 -4 -4 -4 -4 -4 -5 -5 -5 -5 -5 -5 -5 -5 -5 -5 -5 -5 -5 -6 -6 -6 -6 -6 -6 -6 -6 -6 -6 -6 -6 -6 -6 -6 -7 -7
-4 -4 -4 -4 -4 -4 -4 -4 -4 -4 -4 -4 -4 -5 -5 -5 -5 -5 -5 -5 -5 -5 -5 -5 -5 -5 -5 -6 -6 -6 -6 -6 -6 -6 -6 -6 -6 -6 -6 -7 -7 -7
-4 -4 -4 -4 -4 -4 -4 -4 -4 -4 -4 -4 -4 -5 -5 -5 -5 -5 -5 -5 -5 -5 -5 -5 -5 -5 -5 -5 -6 -6 -6 -6 -6 -6 -6 -6 -6 -6 -7 -7 -7 -7
-4 -4 -4 -4 -4 -4 -4 -4 -4 -4 -4 -5 -5 -5 -5 -5 -5 -5 -5 -5 -5 -5 -5 -5 -5 -5 -5 -5 -6 -6 -6 -6 -6 -6 -6 -6 -7 -7 -7 -7 -7 -7
-4 -4 -4 -4 -4 -4 -4 -4 -4 -4 -5 -5 -5 -5 -5 -5 -5 -5 -5 -5 -5 -5 -5 -5 -5 -5 -5 -5 -6 -6 -6 -6 -6 -6 -6 -6 -7 -7 -7 -7 -7 -7
-4 -4 -4 -4 -4 -4 -4 -4 -4 -4 -4 -4 -4 -5 -5 -5 -5 -5 -5 -5 -5 -5 -5 -5 -5 -5 -6 -6 -6 -6 -6 -6 -6 -6 -6 -6 -7 -7 -7 -7 -7 -7
-4 -4 -4 -4 -4 -4 -4 -4 -4 -4 -4 -4 -4 -4 -4 -4 -4 -4 -5 -5 -5 -5 -5 -5 -5 -6 -6 -6 -6 -6 -6 -6 -6 -6 -6 -6 -7 -7 -7 -7 -7 -7
-4 -4 -4 -4 -4 -4 -4 -4 -4 -4 -4 -4 -4 -4 -4 -4 -4 -5 -5 -5 -5 -5 -5 -5 -6 -6 -6 -6 -6 -6 -6 -6 -6 -7 -7 -7 -7 -7 -7 -7 -7 -7
-4 -4 -4 -4 -4 -4 -4 -4 -4 -4 -4 -4 -4 -4 -4 -4 -5 -5 -5 -5 -5 -5 -5 -5 -6 -6 -6 -6 -6 -7 -7 -7 -7 -7 -7 -7 -7 -7 -7 -7 -7 -7
-4 -4 -4 -4 -5 -4 -4 -4 -4 -4 -4 -4 -4 -5 -5 -5 -5 -5 -5 -5 -5 -5 -5 -5 -5 -6 -6 -6 -6 -7 -7 -7 -7 -7 -7 -7 -7 -7 -7 -7 -7 -7
-4 -5 -5 -5 -5 -4 -4 -4 -4 -4 -4 -5 -5 -5 -5 -5 -5 -5 -5 -5 -5 -5 -5 -5 -6 -6 -6 -6 -6 -7 -7 -7 -7 -7 -7 -7 -7 -7 -7 -7 -7 -7
-5 -5 -5 -5 -5 -5 -4 -4 -5 -5 -5 -5 -5 -5 -5 -5 -5 -5 -5 -5 -5 -5 -5 -5 -5 -5 -6 -6 -6 -6 -7 -7 -7 -7 -7 -7 -7 -7 -7 -8 -8 -8
-5 -5 -5 -5 -5 -5 -4 -5 -5 -5 -5 -5 -5 -5 -5 -5 -5 -5 -5 -5 -5 -5 -5 -5 -5 -5 -5 -5 -6 -6 -6 -7 -7 -7 -8 -8 -8 -8 -8 -8 -8 -8
-5 -5 -5 -5 -5 -5 -5 -5 -5 -5 -5 -5 -5 -5 -5 -5 -5 -5 -5 -5 -5 -5 -5 -5 -5 -5 -5 -5 -5 -6 -6 -6 -7 -7 -7 -7 -8 -8 -8 -8 -8 -8
-5 -5 -5 -5 -5 -5 -5 -5 -5 -5 -5 -5 -5 -5 -5 -5 -5 -5 -5 -5 -5 -5 -5 -5 -5 -5 -5 -5 -6 -6 -6 -6 -6 -7 -7 -7 -7 -7 -7 -7 -7 -7
-5 -5 -6 -5 -5 -5 -5 -5 -5 -5 -5 -5 -5 -5 -5 -5 -5 -5 -5 -5 -5 -5 -5 -5 -5 -5 -6 -6 -6 -6 -6 -6 -6 -7 -7 -7 -7 -7 -7 -7 -7 -8
-6 -6 -6 -6 -6 -6 -5 -5 -5 -5 -5 -5 -5 -5 -5 -5 -6 -6 -6 -5 -6 -6 -6 -6 -6 -6 -6 -6 -6 -6 -6 -7 -7 -7 -7 -7 -7 -7 -7 -8 -8 -8
-6 -6 -6 -6 -6 -6 -6 -5 -5 -5 -5 -5 -5 -5 -5 -6 -6 -6 -6 -6 -6 -6 -6 -6 -6 -6 -6 -6 -6 -6 -6 -7 -7 -7 -7 -7 -7 -7 -7 -8 -8 -8
-7 -7 -6 -6 -6 -6 -6 -5 -5 -5 -5 -5 -5 -5 -5 -6 -6 -6 -6 -6 -6 -6 -6 -6 -7 -7 -7 -7 -6 -6 -6 -7 -7 -7 -7 -8 -8 -8 -8 -8 -8 -8
-7 -7 -7 -7 -6 -6 -6 -6 -6 -6 -6 -5 -5 -5 -6 -6 -6 -6 -6 -6 -6 -6 -6 -7 -7 -7 -7 -7 -7 -7 -7 -7 -7 -7 -7 -8 -8 -8 -8 -8 -8 -8
-7 -7 -7 -7 -7 -6 -6 -6 -6 -6 -6 -6 -6 -6 -6 -6 -6 -6 -6 -6 -7 -7 -7 -7 -7 -7 -7 -7 -7 -7 -7 -7 -7 -7 -7 -7 -7 -7 -8 -8 -8 -8
-7 -7 -7 -7 -7 -6 -6 -6 -6 -6 -6 -6 -6 -6 -6 -6 -6 -6 -7 -7 -7 -7 -7 -7 -7 -7 -7 -8 -8 -8 -7 -7 -7 -7 -7 -7 -7 -7 -7 -7 -8 -8
-7 -7 -7 -7 -7 -6 -6 -6 -6 -6 -6 -6 -6 -6 -6 -6 -7 -7 -7 -7 -7 -7 -7 -7 -7 -7 -8 -8 -8 -8 -8 -8 -8 -7 -7 -7 -7 -7 -7 -7 -8 -8
-7 -7 -7 -7 -7 -7 -6 -6 -6 -6 -6 -6 -6 -6 -6 -7 -7 -7 -7 -7 -7 -7 -7 -7 -7 -8 -8 -8 -8 -8 -8 -8 -8 -8 -8 -8 -8 -8 -8 -8 -8 -8
-7 -7 -7 -7 -7 -7 -7 -6 -6 -6 -6 -6 -6 -6 -7 -7 -7 -7 -7 -7 -7 -7 -7 -7 -7 -8 -8 -8 -8 -8 -8 -8 -8 -8 -8 -8 -8 -8 -8 -8 -8 -8
Height
5930 5931 5933 5934 5935 5937 5938 5939 5940 5942 5943 5944 5945 5946 5947 5948 5948 5949 5950 5950 5950 5950 5950 5951 5951 5951 5951 5951 5952 5952 5952 5952 5951 5951 5951 5951 5951 5950 5950 5950 5950 5950
5928 5930 5931 5933 5934 5936 5937 5938 5939 5940 5942 5943 5944 5945 5946 5947 5947 5948 5949 5949 5950 5950 5950 5950 5951 5951 5951 5951 5951 5952 5952 5951 5951 5951 5950 5950 5950 5950 5950 5950 5949 5950
5927 5928 5930 5931 5933 5934 5935 5937 5938 5939 5941 5942 5943 5944 5945 5946 5947 5947 5948 5949 5949 5949 5950 5950 5950 5950 5950 5950 5950 5951 5951 5951 5951 5951 5950 5950 5950 5950 5949 5949 5949 5949
5925 5926 5928 5929 5931 5933 5934 5936 5937 5938 5940 5941 5942 5943 5944 5945 5945 5946 5947 5948 5948 5949 5949 5949 5949 5949 5949 5949 5949 5950 5950 5950 5950 5950 5950 5950 5950 5949 5949 5949 5949 5949
5924 5924 5926 5927 5929 5931 5933 5934 5936 5937 5939 5940 5941 5942 5943 5944 5944 5945 5946 5947 5947 5948 5948 5948 5948 5948 5948 5948 5948 5948 5949 5949 5949 5950 5950 5950 5949 5949 5949 5949 5949 5948
5923 5924 5925 5926 5928 5929 5930 5932 5934 5936 5938 5939 5940 5941 5942 5943 5944 5944 5945 5946 5946 5946 5947 5947 5947 5947 5947 5947 5947 5947 5948 5948 5948 5949 5949 5949 5949 5949 5948 5948 5948 5948
5922 5923 5924 5925 5926 5927 5929 5930 5932 5934 5936 5938 5939 5940 5941 5942 5943 5943 5944 5945 5945 5945 5945 5945 5946 5946 5946 5946 5946 5946 5946 5947 5947 5947 5948 5948 5948 5948 5948 5948 5948 5948
5921 5922 5923 5924 5926 5926 5927 5929 5931 5933 5935 5936 5938 5939 5940 5941 5941 5942 5943 5943 5944 5944 5944 5944 5944 5944 5945 5945 5945 5945 5945 5945 5945 5946 5946 5947 5947 5947 5947 5947 5947 5947
5920 5921 5922 5923 5925 5925 5927 5928 5929 5931 5933 5935 5936 5938 5939 5940 5940 5941 5941 5941 5942 5942 5942 5943 5943 5943 5943 5943 5943 5943 5944 5944 5944 5944 5944 5945 5946 5946 5946 5947 5947 5947
5919 5921 5922 5923 5924 5925 5926 5927 5928 5930 5932 5933 5935 5936 5937 5938 5939 5939 5939 5940 5940 5940 5941 5941 5941 5941 5941 5941 5941 5942 5942 5942 5943 5943 5943 5943 5944 5945 5946 5946 5946 5945
5918 5920 5921 5922 5923 5924 5925 5926 5927 5929 5930 5932 5933 5934 5935 5936 5937 5938 5938 5938 5938 5938 5939 5939 5939 5939 5939 5939 5939 5940 5940 5941 5941 5942 5942 5942 5943 5943 5944 5944 5944 5944
5917 5918 5920 5921 5922 5923 5924 5925 5926 5927 5928 5930 5931 5932 5933 5934 5935 5936 5936 5936 5936 5937 5937 5937 5937 5937 5937 5937 5938 5938 5939 5939 5940 5940 5940 5941 5941 5942 5942 5943 5943 5943
5915 5917 5918 5919 5921 5922 5923 5924 5925 5926 5927 5928 5929 5930 5931 5932 5933 5934 5935 5935 5935 5935 5935 5935 5935 5935 5935 5935 5936 5936 5937 5938 5938 5939 5939 5939 5940 5940 5941 5941 5941 5941
5914 5915 5917 5918 5919 5920 5921 5922 5923 5924 5925 5925 5927 5928 5929 5930 5931 5932 5933 5933 5934 5934 5934 5934 5933 5933 5934 5934 5934 5935 5935 5936 5937 5937 5937 5938 5938 5939 5939 5940 5940 5939
5912 5914 5916 5917 5918 5919 5920 5920 5921 5922 5923 5924 5925 5926 5927 5928 5929 5930 5931 5932 5932 5932 5932 5932 5932 5932 5933 5933 5933 5934 5934 5934 5935 5935 5936 5936 5937 5937 5937 5938 5938 5938
5911 5913 5915 5916 5917 5917 5918 5919 5919 5920 5921 5922 5923 5924 5925 5926 5927 5928 5929 5930 5930 5930 5930 5931 5931 5932 5932 5932 5932 5932 5933 5933 5933 5934 5934 5935 5935 5936 5936 5936 5936 5936
5909 5911 5913 5914 5915 5915 5915 5916 5917 5918 5919 5920 5921 5922 5923 5924 5925 5926 5927 5928 5928 5929 5929 5930 5930 5930 5931 5931 5931 5931 5932 5932 5932 5933 5933 5934 5934 5935 5935 5935 5935 5935
5907 5909 5911 5912 5912 5913 5913 5914 5914 5916 5917 5918 5919 5920 5921 5922 5923 5924 5925 5926 5927 5927 5928 5928 5929 5929 5930 5930 5930 5930 5931 5931 5931 5932 5932 5933 5933 5934 5934 5934 5934 5934
5905 5907 5908 5909 5910 5910 5910 5911 5912 5914 5915 5916 5917 5918 5919 5920 5921 5922 5923 5924 5925 5926 5926 5927 5927 5928 5928 5929 5929 5929 5929 5930 5930 5931 5931 5932 5932 5932 5933 5933 5933 5933
5903 5905 5906 5907 5907 5907 5908 5909 5910 5911 5912 5914 5914 5916 5917 5918 5919 5920 5921 5922 5923 5924 5925 5925 5926 5926 5926 5927 5927 5928 5928 5928 5929 5930 5930 5930 5931 5931 5931 5931 5932 5932
5901 5902 5903 5904 5904 5905 5906 5907 5908 5909 5910 5911 5912 5913 5915 5916 5917 5918 5919 5920 5921 5922 5923 5923 5924 5924 5924 5925 5925 5926 5926 5927 5927 5928 5929 5929 5929 5929 5929 5930 5930 5930
5899 5900 5900 5901 5901 5902 5903 5904 5905 5906 5907 5908 5909 5911 5912 5913 5915 5916 5917 5918 5919 5920 5921 5921 5921 5922 5922 5922 5922 5923 5923 5924 5925 5926 5926 5927 5927 5927 5928 5928 5928 5928
5896 5896 5897 5898 5898 5899 5900 5901 5902 5903 5904 5905 5906 5908 5909 5910 5912 5913 5914 5915 5916 5917 5918 5919 5919 5919 5920 5920 5920 5920 5920 5921 5922 5923 5924 5924 5925 5925 5925 5925 5925 5925
5893 5893 5894 5895 5895 5897 5897 5898 5898 5899 5900 5902 5903 5905 5906 5907 5908 5909 5911 5912 5914 5915 5916 5916 5917 5917 5917 5918 5918 5918 5918 5919 5919 5920 5921 5922 5922 5922 5922 5922 5922 5922
5890 5891 5891 5892 5893 5893 5894 5895 5895 5896 5897 5898 5900 5902 5903 5904 5905 5906 5908 5909 5911 5912 5913 5914 5914 5915 5915 5916 5916 5916 5917 5917 5918 5918 5919 5919 5919 5919 5919 5919 5918 5918
5887 5888 5889 5890 5890 5890 5891 5891 5892 5893 5894 5895 5897 5899 5900 5901 5902 5904 5905 5907 5908 5909 5910 5911 5911 5912 5912 5913 5914 5914 5915 5915 5915 5916 5917 5917 5916 5916 5916 5916 5915 5915
Wind_Speed
15 15 15 14 13 12 12 12 11 10 9 8 7 6 5 4 3 2 2 2 2 2 2 2 2 3 5 6 6 7 7 7 6 6 7 7 7 6 6 5 5 5
17 16 16 14 13 12 12 13 12 11 10 9 8 7 6 6 5 4 3 3 3 3 3 3 3 4 4 5 5 5 6 6 7 7 8 8 9 9 8 7 6 5
18 18 16 15 14 14 13 13 12 11 10 10 9 9 8 7 6 4 4 4 4 4 4 5 5 5 6 6 6 6 5 6 6 7 7 8 9 10 10 10 9 8
19 19 17 16 15 14 13 13 12 11 10 10 10 9 8 7 6 4 4 4 4 5 5 6 7 7 7 8 8 8 7 7 7 7 7 8 8 9 10 10 11 10
21 20 19 18 16 15 14 14 13 12 12 11 9 8 8 7 6 5 4 4 5 6 6 7 8 9 9 10 10 10 10 9 9 8 7 7 8 8 9 9 10 11
21 20 19 18 17 17 16 16 15 13 12 11 9 9 8 7 6 5 5 5 6 7 8 9 9 10 11 11 11 12 12 11 11 10 9 9 9 9 9 9 9 10
21 20 19 18 17 17 18 17 15 14 13 12 10 9 8 7 6 6 6 7 7 9 10 10 11 11 12 13 13 13 13 13 12 12 11 10 10 10 10 10 10 10
21 20 19 18 17 17 17 16 15 14 13 12 11 10 9 8 8 8 8 8 9 10 11 12 12 13 13 14 14 14 13 13 13 13 12 11 11 11 11 11 11 11
20 20 19 18 18 17 16 15 14 14 13 12 11 10 9 8 8 8 9 9 9 10 11 12 13 14 14 15 15 15 14 14 13 13 13 12 11 11 11 12 12 12
20 20 19 19 18 17 16 14 14 13 12 11 10 9 8 9 9 8 8 9 10 11 12 13 14 14 15 15 16 16 15 14 13 13 13 13 12 11 11 11 12 12
19 19 19 18 18 16 15 14 13 11 11 10 9 9 9 9 9 8 8 9 10 11 12 13 14 14 15 15 15 15 15 14 13 13 12 12 12 11 10 10 10 11
19 18 18 18 18 17 15 14 12 11 10 10 10 10 10 9 9 9 9 10 10 11 12 13 13 13 14 14 14 13 13 12 12 12 12 11 11 11 10 10 10 10
20 20 20 19 18 17 16 14 13 12 11 11 11 11 10 10 10 10 9 9 10 11 11 12 12 12 11 11 11 11 10 10 10 11 11 11 11 10 10 9 10 11
21 21 20 19 17 15 14 13 13 12 12 12 11 11 11 11 11 10 9 9 10 10 10 10 10 10 9 8 8 8 7 7 8 9 10 10 11 10 10 9 9 10
20 19 17 16 14 13 13 12 12 13 13 12 12 12 12 12 11 9 8 8 9 9 9 9 8 7 6 5 4 4 4 4 4 5 6 7 7 8 8 7 7 7
19 17 15 14 13 13 13 13 13 13 13 12 13 13 13 12 11 9 9 9 9 8 8 8 7 6 5 3 3 2 1 1 1 1 2 2 2 2 3 3 3 3
19 17 15 14 13 13 14 14 14 14 14 13 13 13 12 12 11 10 10 9 9 9 8 7 6 5 4 3 3 3 2 1 1 1 3 4 5 4 3 2 1 2
18 18 16 14 13 13 14 15 15 15 15 14 13 12 13 13 12 11 11 10 9 9 8 7 6 5 4 4 4 4 3 2 2 2 3 4 4 5 4 3 2 2
15 15 14 13 12 13 14 14 15 16 15 14 14 14 14 14 13 13 12 10 10 10 9 8 7 6 5 5 5 4 4 3 2 2 2 2 2 2 1 1 2 4
13 13 12 12 13 13 13 14 15 16 17 17 16 16 15 14 14 13 13 12 11 11 10 8 8 7 7 6 5 5 4 3 2 2 1 1 2 3 4 5 6 7
13 13 14 14 15 15 14 14 15 17 18 19 18 17 16 16 16 15 14 13 12 12 11 9 9 8 7 7 7 7 6 6 5 4 4 4 4 5 7 8 9 10
14 14 15 15 15 16 16 15 16 17 19 21 20 19 19 18 17 16 14 13 13 13 11 10 10 9 9 9 10 10 9 7 7 7 6 6 6 8 9 10 11 12
15 15 15 15 16 16 16 16 18 19 20 22 22 21 20 19 18 17 16 16 16 14 12 12 12 11 11 11 12 13 13 11 11 9 9 9 10 11 12 12 14 16
17 16 16 16 16 15 15 17 20 21 22 23 24 23 22 21 20 20 20 19 17 15 14 15 14 13 13 13 14 15 16 16 16 15 14 14 15 16 16 17 18 21
18 18 17 16 16 16 15 17 20 23 24 24 24 24 23 23 23 22 21 19 18 16 16 16 15 15 14 14 15 16 17 17 18 18 17 17 18 19 20 22 24 26
20 20 19 17 17 17 16 16 18 22 25 24 24 24 24 24 24 22 21 20 19 18 17 17 16 16 16 16 17 18 18 19 19 18 18 19 20 21 22 24 26 28
Wind_Direction
200 202 206 203 196 187 180 181 185 183 182 189 195 196 197 204 215 216 219 236 253 274 298 322 340 354 6 17 25 29 25 19 12 359 351 348 346 346 352 3 16 20
199 201 204 201 196 190 186 185 188 189 189 192 196 201 205 209 215 221 226 242 254 264 274 283 294 308 324 340 355 7 12 14 14 10 4 359 354 349 346 346 352 357
197 198 198 198 195 191 189 187 188 191 193 193 193 198 206 210 214 218 227 245 258 267 275 280 283 286 291 301 311 323 336 346 354 2 5 5 3 359 354 347 344 342
194 194 194 195 194 190 185 184 186 190 193 195 194 196 203 209 214 218 228 246 262 273 279 279 280 281 282 286 291 296 303 310 321 334 345 355 360 2 1 355 348 344
193 193 192 192 189 183 178 179 184 187 190 194 195 197 201 205 210 216 229 245 259 269 273 274 275 278 280 282 285 288 291 294 299 307 318 330 340 349 356 357 355 351
195 194 193 191 185 179 177 179 182 184 186 187 189 194 197 200 206 215 229 243 254 262 267 271 274 277 279 281 282 285 288 291 293 295 301 309 318 327 336 346 353 354
195 194 192 190 185 182 182 181 180 180 181 180 180 186 193 200 212 223 234 244 253 261 267 271 274 275 277 280 282 284 287 290 292 293 295 301 305 310 319 329 340 347
193 191 190 189 187 188 188 184 179 178 177 176 179 186 195 208 224 236 244 250 255 260 267 272 275 276 277 278 281 283 286 288 291 294 296 298 300 303 310 318 326 333
190 189 190 191 191 193 192 187 181 178 177 180 186 193 203 217 230 241 248 253 257 260 263 267 271 274 275 277 279 280 282 285 288 292 296 298 299 303 309 315 318 321
190 192 193 194 194 194 192 187 182 180 180 186 193 201 213 224 230 235 239 245 252 259 263 267 270 272 273 274 275 275 276 280 283 287 292 297 300 305 310 313 314 315
192 192 192 192 193 192 189 187 184 183 185 193 201 209 217 224 229 230 232 238 249 259 266 271 273 273 272 270 269 270 272 274 278 281 285 291 297 304 309 312 313 313
190 188 188 188 189 189 188 188 188 188 191 198 206 212 216 220 222 225 232 244 258 269 273 274 273 271 270 270 269 267 265 265 268 273 277 282 288 295 303 310 312 310
189 187 187 187 188 189 189 190 191 191 195 201 205 209 213 215 217 221 231 247 262 270 273 273 271 268 266 266 267 266 262 258 256 259 266 273 279 284 292 300 303 304
195 193 192 191 191 191 191 192 193 194 199 203 204 206 209 213 216 219 228 246 257 260 262 263 262 262 262 263 265 266 264 259 251 249 255 262 272 280 285 290 293 295
201 197 195 194 193 194 195 196 197 200 204 204 203 205 210 215 217 219 226 240 249 251 249 247 247 251 256 261 266 270 268 261 250 244 245 251 261 269 275 280 282 286
201 199 198 199 200 202 204 205 205 207 209 208 207 209 212 216 218 220 226 233 238 240 238 236 234 235 238 244 251 256 258 250 230 211 190 177 195 222 245 264 278 297
200 200 202 204 207 210 212 212 213 213 213 213 213 214 215 217 218 221 226 230 230 230 230 228 225 224 223 221 221 221 221 212 162 107 102 105 112 118 121 110 69 23
199 202 205 208 211 214 216 217 216 216 216 216 216 216 216 217 218 221 225 227 225 225 225 220 216 217 216 215 214 212 210 200 164 123 98 96 101 106 110 103 66 17
197 202 207 211 215 218 219 220 220 218 217 217 216 217 216 216 219 222 223 222 221 222 221 216 214 218 221 222 221 214 206 194 175 144 101 85 87 80 59 359 345 338
201 203 207 213 219 221 221 221 221 219 218 217 219 218 216 216 221 223 222 217 216 218 218 216 218 224 230 233 233 231 228 224 220 215 245 307 317 317 309 309 314 315
211 210 212 216 221 224 224 222 220 219 219 219 220 219 216 216 219 222 223 220 217 217 216 218 225 231 239 247 250 247 239 234 236 240 246 268 284 290 294 302 307 306
221 221 221 224 227 228 229 227 222 220 219 218 219 218 217 218 219 221 224 223 220 220 219 222 230 238 246 256 263 264 258 250 247 243 244 256 270 278 285 293 296 296
228 231 231 233 234 233 233 230 225 221 219 218 218 218 218 219 220 221 222 221 221 221 222 224 231 239 246 254 262 269 273 275 272 267 267 273 280 282 284 286 289 292
231 235 238 240 241 239 236 231 226 222 220 219 217 217 218 218 220 221 222 223 222 220 219 221 226 233 240 247 255 262 270 275 277 277 278 281 284 285 286 288 290 293
229 233 238 244 249 250 246 237 227 222 221 221 218 217 218 219 221 223 225 226 226 223 220 220 223 229 235 240 247 254 260 265 268 270 274 277 280 283 286 289 291 292
225 230 234 242 250 255 255 247 233 225 223 222 220 218 219 222 224 226 228 229 228 227 226 225 227 233 238 243 247 251 254 257 260 263 268 271 272 276 280 283 286 288